Location: Beloeil
(45.5670°N, 73.2000°W)
Time: 07:59:49
(UTC-04:00)

Daily predictions for brighter satellites

Satellite Brightness Start Highest point End
(mag) Time Altitude Azimuth Time Altitude Azimuth Time Altitude Azimuth
Lacrosse 5 rocket 3.0 20:18:37 10° WNW 20:21:39 25° SW 20:24:48 10° S
Envisat 3.1 20:17:02 10° SSE 20:22:01 59° ENE 20:27:01 10° N
Cosmos 1939 Rocket 3.5 20:19:36 10° SE 20:23:17 38° ENE 20:26:56 10° N
Cosmos 1536 3.7 20:20:18 10° SSE 20:23:54 31° E 20:27:30 10° NNE
H-2A R/B 4.0 20:29:09 10° E 20:31:11 12° ENE 20:33:13 10° NNE
Meteor 2-4 Rocket 3.8 20:29:44 10° N 20:35:16 64° ENE 20:40:55 10° SSE
Cosmos 1655 Rocket 4.2 20:29:00 10° S 20:35:18 85° W 20:41:42 10° N
CZ-2D R/B 4.2 20:34:49 10° S 20:38:35 51° W 20:42:22 10° NNW
Okean 2 Rocket 4.3 20:34:26 10° SSW 20:38:48 49° WNW 20:43:12 10° N
ATLAS 2AS CENTAUR R/B 3.3 20:33:06 10° S 20:40:22 48° ESE 20:48:03 10° NE
CZ-4B DEB 4.0 20:43:53 15° ESE 20:45:26 22° ENE 20:47:45 10° NNE
BREEZE-M DEB (TANK) 2.9 20:42:37 10° SW 20:45:33 53° SE 20:53:45 10° ENE
BREEZE-M DEB (TANK) 4.2 20:44:02 10° W 20:47:18 40° SSW 20:58:44 10° SE
BREEZE M DEB (TANK) 4.4 20:35:45 10° W 20:47:37 63° NNW 20:51:16 10° ENE
NOSS 2-3 (E) 3.9 20:46:07 10° SSW 20:50:47 66° ESE 20:56:16 10° NE
Helios 1B rocket 3.1 20:49:32 10° NNE 20:53:18 33° E 20:57:01 10° SSE
Cosmos 883 Rocket 4.5 20:48:18 10° N 20:54:25 64° E 21:00:30 10° SSE
Cosmos 839 Rocket 4.4 20:49:56 10° SW 20:56:05 67° NW 21:02:29 10° NNE
SPOT 5 4.2 20:54:21 14° ESE 20:57:01 22° ENE 21:00:33 10° NNE
USA 186 3.3 20:54:01 10° SSW 20:57:11 38° W 21:00:23 10° NNW
Cosmos 1850 Rocket 4.4 20:53:40 10° NNW 20:58:58 67° WSW 21:04:12 10° S
Lacrosse 5 2.0 20:54:18 10° SSW 20:59:11 51° SE 21:04:07 10° ENE
Cosmos 1331 Rocket 4.4 20:58:39 10° S 21:03:25 38° ESE 21:08:15 10° NE
Atlas Centaur 2 4.3 20:58:14 10° WSW 21:04:14 22° SSW 21:08:53 13° SSE
SeaSat 1 2.4 21:01:49 10° NNE 21:06:47 76° ESE 21:11:42 10° SSW
SL-8 R/B 3.7 21:02:01 10° WNW 21:06:50 81° NNE 21:10:16 19° ESE
ARGOS 3.7 21:08:23 19° SE 21:11:46 40° ENE 21:16:45 10° N
Cosmos 1607 4.2 21:06:25 10° NW 21:12:52 72° WSW 21:18:19 15° SSE
Cosmos 220 Rocket 4.1 21:12:50 10° NNW 21:17:09 74° WSW 21:20:29 17° SSE
Cosmos 2263 Rocket 2.8 21:12:57 10° NNW 21:18:33 57° WSW 21:23:58 11° S
Okean 1 Rocket 3.0 21:14:13 10° S 21:18:34 87° E 21:22:59 10° N
Cosmos 1300 Rocket 4.0 21:15:17 10° SSW 21:19:32 61° WNW 21:23:50 10° N
Cosmos 1025 Rocket 2.9 21:16:01 10° N 21:20:18 77° E 21:23:14 20° SSE
Cosmos 2278 Rocket 3.9 21:17:40 10° N 21:21:44 20° NE 21:24:48 13° E
Okean 2 3.3 21:18:18 10° N 21:22:24 69° E 21:24:45 24° SSE
NOSS 2-3 (C) 4.2 21:19:43 10° SW 21:24:29 73° NW 21:30:11 10° NE
Cosmos 2322 Rocket 2.9 21:19:03 10° SW 21:24:38 56° WNW 21:30:16 10° NNE
YAOGAN 6 3.2 21:22:14 13° S 21:25:17 53° W 21:28:45 10° NNW
Cosmos 1844 Rocket 3.3 21:20:12 10° NNW 21:25:36 42° NE 21:28:30 24° ESE
Tiangong 1 2.7 21:24:43 10° WSW 21:26:44 18° SSW 21:26:47 18° SSW
Okean 1-7 Rocket 3.6 21:25:22 10° N 21:29:53 90° WNW 21:32:58 20° S
Molniya-1 4.4 21:28:09 10° NNW 21:30:42 39° NE 21:31:24 34° E
Cosmos 1818 4.4 21:29:42 27° SE 21:30:45 28° ESE 21:35:21 10° NE
Cosmos 2237 4.4 21:25:31 10° S 21:30:54 46° ESE 21:36:21 10° NE
SPOT 1/Viking Rocket 4.3 21:30:03 26° ESE 21:32:14 37° ENE 21:37:01 10° N
Cosmos 2266 Rocket 4.3 21:26:45 10° SSW 21:32:44 68° W 21:38:46 10° N
NOSS 3-2 (A) 4.3 21:26:05 10° NNW 21:33:17 54° NE 21:38:15 23° ESE
Resurs 01 Rocket 4.2 21:30:11 10° SW 21:33:19 19° W 21:36:29 10° NW
USA 238 DEB 3.8 21:28:29 10° NW 21:35:37 84° NE 21:39:58 26° SE
USA 238 3.8 21:28:35 10° NW 21:35:43 83° NE 21:40:04 26° SE
Cosmos 1515 3.6 21:32:29 10° N 21:36:20 84° E 21:37:54 34° SSE
Abrixas rocket 2.5 21:33:04 10° WNW 21:36:20 61° NNE 21:37:17 40° ENE
SL-16 R/B 3.3 21:31:28 10° SW 21:36:54 46° WNW 21:42:23 10° NNE
Cosmos 2315 Rocket 4.1 21:31:42 10° N 21:37:58 82° W 21:43:24 14° S
Terra 3.3 21:38:02 20° E 21:39:05 21° ENE 21:42:40 10° NNE
Cosmos 1975 3.1 21:40:38 41° ESE 21:41:08 43° E 21:44:56 10° NNE
MetOp-B 4.1 21:38:08 25° SSE 21:41:20 81° ENE 21:46:43 10° NNW
Cosmos 2219 Rocket 3.2 21:42:46 25° E 21:42:46 25° E 21:46:56 10° NE
EXPRESS MD2 3.9 21:40:41 10° W 21:43:43 58° N 21:49:35 10° ENE
Helios 1A 4.1 21:41:23 13° SSW 21:44:53 42° W 21:48:57 10° NNW
Nadezhda 2 Rocket 4.4 21:38:51 10° S 21:45:00 89° W 21:51:18 10° N
Meteor 1-12 Rocket 4.4 21:43:44 30° SSE 21:46:12 48° E 21:51:37 10° NNE
H-2A R/B 4.2 21:46:43 13° ENE 21:47:12 13° ENE 21:49:19 10° NNE
Cosmos 2322 3.6 21:42:24 10° SSW 21:48:02 81° ESE 21:53:45 10° NNE
ERS-1 Rocket 3.1 21:46:40 24° S 21:49:45 74° WSW 21:54:47 10° NNW
ATLAS 3B R/B 2.7 21:43:40 10° NW 21:50:25 73° WSW 21:53:55 29° SSE
Meteor 1-29 3.4 21:48:38 10° N 21:52:02 59° WNW 21:54:00 22° SSW
USA 245 3.6 21:51:09 37° SSE 21:53:00 77° ENE 21:57:09 10° N
Cosmos 1500 3.1 21:52:07 41° S 21:53:24 86° E 21:57:19 10° N
Cosmos 2360 Rocket 2.4 21:51:35 10° SSW 21:57:12 73° WNW 22:02:52 10° NNE
COSMOS 2428 2.8 21:55:48 25° S 21:58:58 56° ESE 22:04:34 10° NE
Cosmos 1745 Rocket 4.1 22:01:10 37° SE 22:03:16 53° E 22:09:15 10° NNE
Cosmos 1844 3.8 21:58:27 10° NNW 22:04:06 63° ENE 22:05:53 42° ESE
Cosmos 1626 Rocket 4.2 22:02:26 10° N 22:06:21 37° ENE 22:06:21 37° ENE
Cosmos 1892 Rocket 3.6 22:04:49 10° NNW 22:09:15 73° W 22:10:26 47° SSW
H-2A R/B 1.9 22:08:24 48° SSE 22:09:51 83° ENE 22:14:51 10° NNW
Cosmos 2333 Rocket 2.9 22:13:05 34° E 22:13:05 34° E 22:17:21 10° NE
Cosmos 1238 Rocket 4.2 22:05:31 10° N 22:12:16 76° W 22:15:42 29° S
NOSS 3-2 (C) 4.1 22:05:06 10° NW 22:12:29 67° NE 22:16:02 36° ESE
ATLAS CENTAUR R/B 3.8 22:15:15 10° NNE 22:16:06 11° NNE 22:16:57 10° NE
Cosmos 1437 Rocket 3.3 22:19:12 46° NE 22:19:12 46° NE 22:22:16 10° NNE
Cosmos 2333 4.0 22:16:47 33° S 22:19:24 74° ESE 22:25:01 10° NNE
Cosmos 1302 Rocket 4.1 22:19:34 20° SSW 22:23:20 77° WNW 22:28:39 10° NNE
COSMOS 2455 4.4 22:19:38 10° NNW 22:24:31 25° NE 22:26:58 19° ENE
Cosmos 1486 Rocket 4.4 22:19:32 10° NNW 22:24:41 57° WSW 22:26:11 41° SSW
Cosmos 1544 Rocket 3.7 22:24:22 52° SW 22:25:20 73° W 22:29:49 10° N
Cosmos 1386 Rocket 4.5 22:25:46 50° SSE 22:27:15 65° E 22:33:29 10° NNE
Cosmos 2237 Rocket 3.4 22:30:37 27° ENE 22:30:37 27° ENE 22:33:53 10° NE
Cosmos 405 4.1 22:28:31 38° W 22:29:01 40° WNW 22:32:27 10° N
ATLAS 2AS CENTAUR R/B 3.8 22:23:47 10° WSW 22:31:26 53° NW 22:39:24 10° NE
Cosmos 968 Rocket 4.3 22:27:34 10° N 22:32:17 35° ENE 22:32:33 35° ENE
IGS 5A 3.9 22:33:14 53° NE 22:33:14 53° NE 22:36:49 10° N
GP-B 3.5 22:28:49 10° N 22:32:32 50° NE 22:32:32 50° NE
SPOT 5 3.5 22:33:37 39° SW 22:34:49 48° W 22:39:20 10° NNW
BREEZE M DEB (TANK) 3.9 22:30:38 10° WSW 22:33:38 27° SW 22:33:38 27° SW
Cosmos 1241 Rocket 4.5 22:30:06 10° SW 22:36:41 86° WNW 22:43:12 10° NE
Cosmos 1455 Rocket 3.4 22:37:04 53° WSW 22:37:46 61° W 22:42:12 10° N
Cosmos 1666 3.6 22:39:56 43° NNE 22:39:56 43° NNE 22:42:38 10° N
CENTAUR R/B 3.6 22:32:20 10° NNW 22:39:44 48° NE 22:43:21 31° E
NOSS 3-4 (A) 3.4 22:41:26 59° SE 22:41:39 59° ESE 22:48:00 10° NE
NOSS 3-4 (C) 3.4 22:41:38 58° SE 22:41:45 58° ESE 22:48:06 10° NE
Lacrosse 5 3.1 22:37:28 10° W 22:42:17 41° NNW 22:47:06 10° NE
Cosmos 1842 4.2 22:44:11 10° N 22:46:59 44° N 22:46:59 44° N
Nadezhda 1 Rocket 4.2 22:45:04 10° NNW 22:51:21 68° W 22:53:09 47° SSW
Timation 1 Rocket 4.2 22:46:35 10° NNW 22:52:38 83° ENE 22:53:16 72° SE
Cosmos 1743 3.9 22:56:17 40° NW 22:56:17 40° NW 22:59:22 10° N
Meteor 1-21 4.3 22:54:57 10° NNW 23:00:32 67° W 23:01:12 61° SW
Landsat 7 4.4 23:01:05 50° WSW 23:01:10 50° W 23:05:49 10° NNW
DMSP B5D2-2 4.3 22:56:46 10° N 23:02:00 68° WNW 23:02:48 59° WSW
Cosmos 1354 Rocket 4.5 22:57:15 10° NNW 23:02:25 51° WSW 23:02:44 51° WSW
Cosmos 2278 Rocket 2.1 23:00:52 10° NNW 23:06:35 85° WSW 23:06:39 85° SW
Cosmos 1844 Rocket 3.8 23:04:21 10° NW 23:09:22 33° WSW 23:10:09 32° WSW
CARTOSAT-1 4.4 23:10:33 46° WNW 23:10:33 46° WNW 23:14:03 10° NNW
Cosmos 2181 Rocket 3.9 23:03:42 10° N 23:10:11 77° E 23:10:38 73° ESE
Cosmos 1709 Rocket 3.8 23:10:41 79° SSE 23:11:05 84° E 23:17:22 10° N
ARGOS Delta rocket 4.3 23:08:08 10° N 23:11:44 56° N 23:11:44 56° N
Cosmos 1818 4.3 23:10:06 18° WSW 23:14:02 52° NW 23:19:23 10° NNE
Terra 2.5 23:16:55 48° W 23:16:55 48° W 23:21:09 10° NNW
SL-19 R/B 4.4 23:15:25 10° NNE 23:21:47 86° ESE 23:22:01 83° SSE
H-2A R/B 3.1 23:23:50 46° NNW 23:23:50 46° NNW 23:27:00 10° NNW
CZ-2C R/B 4.1 23:19:50 10° NNE 23:22:55 27° ENE 23:22:55 27° ENE
USA 81 4.2 23:19:36 10° N 23:24:29 67° WNW 23:24:29 67° WNW
CZ-2C R/B 4.0 23:26:25 37° NE 23:26:25 37° NE 23:29:55 10° N
Cosmos 2219 Rocket 2.8 23:24:26 41° WSW 23:25:59 53° WNW 23:31:32 10° NNE
Meteor 2-9 Rocket 4.4 23:27:37 64° W 23:27:54 65° WNW 23:33:32 10° N
Cosmos 972 Rocket 4.2 23:28:17 79° N 23:28:17 79° N 23:34:04 10° NNE
BREEZE M DEB (TANK) 4.2 23:19:22 10° WSW 23:35:11 85° NNW 23:36:24 57° ENE
SL-16 R/B 3.3 23:39:45 33° NE 23:39:45 33° NE 23:43:02 10° NE
Meteor 2-5 Rocket 4.0 23:40:24 10° N 23:45:41 64° NE 23:45:41 64° NE
Mayak 1.6 23:44:56 10° NE 23:45:01 10° NE 23:45:01 10° NE
Cosmos 1943 Rocket 4.5 23:46:22 10° N 23:49:24 15° NE 23:51:31 12° ENE
H-2A R/B 4.4 23:49:01 12° W 23:49:52 13° W 23:52:05 10° WNW
NOSS 0 Rocket 4.5 23:51:55 46° W 23:53:13 54° WNW 23:59:21 10° NNE
ATLAS CENTAUR R/B 3.8 23:52:10 10° NNW 23:53:18 19° NNW 23:53:18 19° NNW
